User: anonymous   Login
Location: Sunrise Point
(46.9200°N, 121.5900°W)
Time: 04:43:50
(UTC-07:00)
Language:

Cosmos 2058 - Orbit

View from above orbital plane
View from above orbital plane
View from above satellite
View from above satellite

Ground track
Ground track

The orbit data is extracted from the following two-line orbital elements,

1 20465U 90010A   15215.43323988  .00001036  00000-0  88420-4 0  9997
2 20465 082.4905 184.8789 0017646 077.8384 282.4814 14.96578643383032
Epoch (UTC): 03 August 2015 10:23:51
Eccentricity: 0.0017646
inclination: 82.4905°
perigee height: 565 km
apogee height: 590 km
right ascension of ascending node: 184.8789°
argument of perigee: 77.8384°
revolutions per day: 14.96578643
mean anomaly at epoch: 282.4814°
orbit number at epoch: 38303

The dashed part of the orbit path shows where the satellite is in the earth's shadow,  

DLR